Wind_Speed
9 8 7 6 7 7 8 7 6 5 6 9 11 14 17 19 20 21 21 21 21 21 20 20 18 17 16 15 14 13 14 16 17 18 20 19 17 15 13 10 8 7 7
11 10 9 8 9 9 9 8 7 7 7 9 11 13 16 19 21 23 23 23 24 24 24 23 22 22 21 19 18 16 16 17 17 18 20 21 19 17 15 12 10 8 8
13 13 12 11 11 12 12 11 10 9 9 10 11 14 16 18 20 21 23 23 24 24 24 24 23 22 22 22 21 19 18 18 18 18 18 20 20 18 16 13 11 9 9
15 15 14 13 13 14 15 15 15 14 13 12 12 14 16 18 19 20 21 23 23 23 23 23 23 22 22 22 22 21 19 19 20 19 18 19 19 19 17 14 12 11 10
17 17 16 16 16 17 18 18 18 18 17 16 16 16 17 19 20 21 21 22 23 24 24 23 23 22 22 22 22 21 19 19 21 20 19 19 19 19 18 15 13 12 11
19 19 19 18 18 20 20 21 21 21 21 20 19 19 19 20 22 22 22 23 24 24 24 24 23 22 22 21 21 20 19 20 21 22 21 21 20 20 19 17 15 13 12
20 20 20 20 21 22 23 24 24 24 24 23 22 22 22 22 23 22 22 23 24 24 24 23 22 22 22 21 21 20 20 20 22 23 23 22 22 21 21 20 18 15 13
20 21 22 23 23 24 25 26 26 26 26 25 25 25 23 23 23 23 22 23 24 24 23 23 23 23 23 23 21 20 20 21 23 24 25 24 23 22 22 22 21 19 15
21 22 23 24 25 26 27 26 26 27 27 27 27 26 25 24 23 23 23 23 24 24 23 23 23 23 24 24 22 21 21 22 23 25 25 25 25 24 24 23 23 22 19
23 23 24 25 26 26 26 26 26 28 29 29 29 28 27 26 24 24 24 24 24 24 23 23 24 24 24 24 23 22 22 22 23 24 25 26 27 27 26 26 26 25 23
24 24 25 25 25 26 26 26 26 28 29 30 31 30 30 27 25 25 24 25 25 24 23 23 24 25 25 25 25 24 23 23 23 23 24 25 26 27 28 28 28 27 26
23 24 24 25 25 25 26 27 27 28 29 30 30 31 31 29 27 26 25 26 27 25 24 23 24 25 25 25 25 25 24 24 24 24 24 24 24 25 25 26 26 27 27
23 24 24 24 25 26 27 28 28 28 28 28 29 30 30 30 28 27 26 26 27 26 24 23 22 23 24 25 25 25 25 25 25 24 23 23 23 22 22 23 24 25 26
24 25 25 25 25 26 27 28 28 28 27 27 27 28 29 30 29 27 26 25 26 26 25 23 22 21 22 23 23 24 25 25 25 24 23 22 22 22 22 22 22 22 23
26 26 27 27 27 27 27 27 27 26 25 25 25 25 27 26 25 24 23 23 23 25 26 24 23 20 19 19 20 21 22 24 25 25 24 23 23 23 23 22 21 19 20
28 28 29 29 28 27 26 26 24 23 23 23 22 23 24 24 22 22 23 23 23 25 27 26 24 21 19 19 18 18 19 21 23 24 24 24 24 24 23 22 21 20 19
28 28 28 28 27 26 25 24 22 21 21 20 20 20 20 21 21 20 21 22 22 24 27 28 27 24 23 22 20 19 18 19 20 21 22 23 24 24 24 23 22 22 21
26 26 26 25 24 24 23 22 21 21 20 19 19 19 19 19 19 19 19 20 22 22 25 27 29 29 27 25 23 22 21 21 21 21 21 22 23 23 24 24 23 23 23
22 22 22 23 22 22 22 21 20 20 20 20 19 18 18 18 17 18 18 19 20 22 24 25 27 30 30 29 28 26 25 25 24 22 22 23 24 24 24 24 24 25 25
19 19 21 21 22 22 22 21 21 21 21 21 20 20 19 18 18 18 18 19 20 20 21 24 26 29 30 30 30 30 30 30 28 26 26 26 26 26 26 26 26 27 27
18 19 20 20 21 22 22 22 21 21 21 22 22 22 21 20 19 19 19 19 20 21 21 22 26 27 29 31 32 32 32 32 31 31 31 30 29 28 29 29 29 29 30
19 19 20 20 21 22 22 22 23 23 22 22 22 23 23 23 22 22 21 21 22 22 22 23 24 27 29 32 34 35 34 34 34 34 34 33 31 31 32 31 31 31 32
20 20 21 21 21 22 23 23 23 24 24 24 23 23 23 24 24 24 23 23 24 24 23 23 24 25 27 30 34 37 37 36 37 38 37 36 35 34 34 32 32 32 33
21 22 22 22 22 23 23 23 23 23 24 24 24 24 23 23 23 24 24 24 24 24 24 24 24 24 25 27 30 34 38 39 39 40 40 38 38 38 36 34 34 34 35
22 22 22 22 22 22 23 23 22 22 22 22 22 23 24 23 23 23 23 23 23 23 23 23 23 23 24 26 29 31 34 36 38 40 41 40 41 42 40 38 37 37 37
22 21 21 21 21 21 21 21 21 21 21 21 20 21 22 22 22 21 22 22 22 22 22 22 22 22 22 23 25 27 30 33 36 38 41 42 42 43 42 41 40 40 39
Wind_Direction
301 319 338 352 352 352 358 1 349 316 284 263 248 239 236 234 234 236 239 243 247 250 252 254 255 256 259 260 260 256 249 245 242 234 227 224 222 221 225 231 235 232 229
288 297 306 321 328 330 333 338 333 316 296 279 264 252 245 242 240 240 241 243 247 250 252 253 255 257 256 255 254 254 250 245 244 242 233 225 222 222 224 231 235 234 233
283 287 291 301 309 311 314 319 319 311 300 290 278 267 257 251 249 248 247 246 247 249 251 253 255 256 254 251 249 251 251 244 241 241 235 227 223 221 222 229 236 237 236
281 282 284 286 292 296 300 304 306 304 298 292 286 278 269 261 255 253 252 250 248 247 249 252 253 254 252 248 244 246 248 243 237 236 230 226 223 221 222 228 236 240 239
277 277 275 277 282 287 289 290 293 294 294 292 288 282 274 267 260 256 255 253 249 246 247 250 250 250 247 245 241 242 243 240 233 230 226 223 222 224 226 229 236 241 242
271 270 270 273 278 282 283 284 285 287 289 288 287 283 278 272 263 258 257 255 250 246 246 248 246 244 242 238 237 238 239 236 230 227 226 225 226 229 231 232 235 241 244
265 263 265 270 275 277 279 281 282 284 286 285 284 284 281 275 268 260 257 254 249 245 245 246 242 239 237 233 233 235 236 234 230 226 226 228 230 233 235 237 238 242 245
260 259 263 267 272 273 274 276 279 280 282 284 284 283 278 274 269 262 257 253 248 244 244 243 239 236 234 232 232 235 236 233 230 229 228 230 233 235 238 240 242 243 247
259 260 263 267 270 272 273 273 274 274 276 280 281 281 277 270 267 261 254 251 247 244 244 242 238 234 233 232 233 235 236 234 232 231 232 233 235 239 241 243 244 246 248
264 267 270 272 274 275 274 273 272 270 272 274 275 276 274 268 264 260 252 249 247 245 244 240 236 234 233 233 234 235 235 234 234 235 235 236 237 241 243 245 247 249 250
268 272 275 278 279 279 278 276 274 272 272 271 271 270 270 265 261 260 253 247 245 245 244 240 237 236 235 234 234 234 233 233 234 236 238 239 241 243 246 247 248 249 249
273 276 280 283 285 285 282 280 276 274 274 272 269 267 266 264 261 260 253 248 244 242 242 239 237 239 238 236 234 233 231 232 234 237 239 241 243 245 246 247 247 247 247
277 281 285 288 288 287 285 282 279 277 275 272 269 264 263 262 260 260 255 250 244 239 238 237 236 238 239 238 236 233 231 231 234 237 239 241 243 244 246 247 247 247 246
283 286 289 291 291 290 288 285 283 280 276 273 269 264 262 260 257 258 254 249 245 237 233 235 235 236 237 238 237 235 232 232 234 236 238 241 242 245 246 247 249 248 246
287 289 292 293 293 291 289 288 285 281 275 273 269 264 261 261 256 252 249 247 242 235 230 234 235 234 234 234 236 236 234 233 233 235 238 241 242 245 247 248 248 247 245
291 293 294 295 294 291 289 288 286 281 276 273 269 264 260 258 257 250 245 243 238 232 229 232 234 234 234 233 234 235 236 236 235 236 237 239 241 244 246 247 246 244 243
294 295 296 295 293 290 288 286 284 280 276 272 268 264 261 256 256 253 245 240 237 234 231 232 235 236 237 237 237 237 238 239 238 238 237 238 239 242 244 244 243 243 243
295 295 295 295 292 288 286 284 281 277 274 270 267 264 261 257 256 254 246 241 240 237 235 235 236 236 237 240 240 240 241 242 242 242 241 241 242 242 243 242 242 243 245
292 293 294 292 289 285 283 282 279 275 271 268 265 263 260 257 255 252 250 247 245 244 241 239 240 237 238 241 242 243 245 246 246 246 246 246 245 245 244 244 244 245 246
290 291 290 289 286 283 281 281 278 274 270 265 263 261 258 257 254 252 251 251 248 248 247 245 244 243 243 241 241 244 246 247 248 248 248 249 249 249 248 247 247 247 248
292 290 288 287 285 283 280 277 277 275 271 266 262 260 258 257 254 253 252 252 252 253 254 254 249 246 246 243 242 244 246 248 249 249 248 250 251 253 252 250 249 249 249
292 289 287 286 285 283 280 277 275 274 272 267 264 261 258 257 256 256 255 255 255 256 257 257 255 252 251 247 244 246 248 249 250 250 250 251 251 252 252 253 253 252 252
291 290 288 287 285 283 281 279 277 273 270 267 264 260 258 257 256 257 257 257 257 258 259 259 259 257 255 252 248 248 249 251 252 253 252 253 253 252 252 253 255 255 254
293 291 289 287 285 283 282 280 278 275 271 267 263 260 258 256 255 255 256 257 258 258 258 259 258 257 256 253 251 249 251 253 254 253 253 253 255 255 254 255 257 257 256
295 292 289 287 285 284 282 280 278 275 271 267 263 260 257 256 256 255 255 256 257 257 258 258 258 257 256 254 254 253 253 255 254 253 254 255 255 257 257 258 258 258 258
296 292 289 286 284 282 280 278 275 271 269 267 264 260 257 256 255 256 256 257 257 257 258 258 257 258 258 259 258 257 255 254 254 253 253 254 255 256 257 258 259 259 259
Height
5882 5882 5880 5879 5878 5876 5875 5874 5873 5873 5872 5873 5874 5874 5875 5877 5878 5879 5880 5882 5883 5884 5885 5887 5888 5890 5890 5891 5892 5892 5893 5894 5896 5897 5899 5901 5903 5905 5907 5908 5909 5910 5911
5880 5880 5879 5877 5876 5875 5874 5872 5872 5871 5871 5871 5871 5872 5872 5873 5874 5875 5876 5877 5878 5879 5881 5882 5884 5885 5887 5888 5888 5889 5890 5891 5893 5894 5896 5898 5900 5903 5905 5906 5907 5908 5909
5877 5876 5876 5875 5874 5873 5872 5871 5870 5869 5869 5868 5868 5869 5869 5870 5870 5871 5872 5872 5873 5874 5876 5877 5878 5880 5882 5883 5884 5886 5887 5888 5890 5891 5893 5895 5897 5900 5902 5903 5905 5906 5907
5873 5873 5872 5872 5871 5870 5869 5868 5867 5866 5866 5865 5865 5865 5865 5866 5866 5866 5867 5868 5868 5869 5871 5872 5873 5875 5877 5878 5880 5882 5883 5885 5886 5888 5890 5892 5894 5897 5899 5901 5902 5903 5904
5869 5869 5868 5868 5867 5867 5866 5865 5865 5864 5863 5862 5861 5861 5861 5861 5861 5862 5862 5863 5864 5864 5866 5867 5868 5870 5872 5873 5875 5877 5879 5881 5883 5885 5887 5889 5891 5894 5896 5898 5899 5900 5901
5864 5864 5864 5863 5863 5862 5861 5861 5860 5860 5859 5858 5857 5857 5856 5856 5856 5857 5857 5858 5859 5860 5861 5862 5863 5865 5867 5869 5871 5873 5874 5877 5879 5882 5884 5886 5889 5891 5893 5895 5896 5898 5899
5859 5859 5859 5859 5858 5857 5857 5856 5855 5854 5853 5853 5853 5852 5852 5851 5851 5851 5852 5853 5854 5855 5856 5858 5859 5860 5863 5864 5866 5868 5870 5872 5875 5878 5880 5883 5885 5887 5889 5891 5893 5895 5896
5854 5854 5854 5853 5853 5852 5851 5850 5849 5848 5848 5847 5847 5847 5847 5846 5845 5846 5847 5847 5848 5850 5851 5853 5854 5856 5858 5860 5862 5864 5866 5868 5871 5874 5877 5879 5882 5884 5886 5888 5889 5891 5893
5848 5848 5848 5848 5847 5846 5845 5844 5844 5843 5842 5841 5841 5841 5841 5841 5841 5841 5841 5842 5843 5845 5846 5848 5849 5851 5854 5856 5858 5860 5862 5864 5867 5870 5872 5875 5878 5880 5882 5883 5885 5887 5889
5842 5842 5842 5841 5840 5839 5838 5837 5837 5837 5836 5836 5835 5835 5835 5835 5835 5835 5836 5837 5839 5840 5841 5843 5845 5847 5849 5851 5853 5855 5858 5860 5862 5865 5868 5870 5873 5875 5877 5879 5881 5882 5884
5836 5836 5835 5834 5833 5832 5831 5831 5830 5830 5829 5829 5828 5828 5828 5828 5829 5830 5831 5832 5834 5835 5837 5838 5840 5842 5844 5846 5848 5851 5853 5856 5858 5860 5863 5865 5867 5870 5872 5874 5875 5877 5879
5830 5829 5829 5828 5826 5825 5825 5824 5823 5823 5822 5822 5821 5821 5821 5821 5822 5824 5825 5827 5828 5830 5832 5834 5835 5837 5839 5841 5843 5846 5848 5851 5853 5856 5858 5860 5862 5864 5866 5868 5870 5872 5873
5824 5823 5822 5821 5820 5819 5818 5817 5816 5815 5814 5814 5814 5814 5814 5814 5816 5817 5819 5820 5822 5825 5827 5829 5830 5832 5834 5836 5838 5840 5843 5846 5848 5851 5853 5856 5858 5860 5861 5863 5865 5866 5868
5818 5817 5816 5815 5813 5812 5811 5809 5808 5808 5807 5807 5806 5806 5806 5807 5808 5811 5813 5815 5817 5819 5821 5824 5826 5827 5829 5831 5833 5836 5838 5841 5843 5846 5848 5851 5853 5855 5857 5859 5860 5861 5863
5811 5810 5808 5807 5806 5805 5804 5802 5802 5801 5800 5800 5799 5799 5800 5800 5801 5804 5806 5809 5811 5813 5816 5819 5821 5823 5825 5827 5829 5831 5834 5836 5838 5841 5843 5846 5848 5850 5852 5854 5855 5857 5858
5803 5802 5801 5800 5799 5798 5797 5796 5795 5795 5794 5794 5793 5793 5794 5795 5796 5797 5800 5802 5805 5808 5811 5814 5816 5819 5821 5823 5825 5827 5829 5831 5833 5835 5838 5840 5843 5845 5847 5849 5851 5852 5854
5797 5796 5794 5793 5792 5791 5790 5790 5789 5789 5789 5788 5788 5788 5789 5790 5791 5792 5794 5797 5799 5803 5806 5808 5811 5814 5816 5819 5821 5823 5825 5827 5828 5830 5832 5835 5837 5839 5842 5844 5846 5848 5849
5791 5789 5788 5787 5786 5785 5785 5784 5784 5784 5784 5784 5784 5784 5785 5785 5786 5788 5789 5792 5794 5797 5800 5802 5805 5808 5811 5814 5816 5818 5820 5822 5824 5826 5828 5830 5832 5834 5836 5838 5840 5842 5844
5785 5784 5783 5782 5781 5780 5780 5779 5779 5779 5779 5779 5779 5780 5780 5781 5782 5784 5785 5787 5789 5791 5794 5796 5799 5802 5805 5808 5810 5813 5815 5817 5819 5821 5823 5824 5826 5828 5830 5832 5834 5836 5838
5780 5779 5778 5776 5775 5774 5774 5774 5773 5774 5774 5774 5775 5776 5776 5777 5778 5779 5781 5782 5784 5786 5788 5790 5793 5795 5798 5801 5804 5807 5809 5811 5813 5816 5817 5818 5820 5822 5824 5826 5828 5830 5831
5775 5774 5772 5771 5769 5768 5768 5768 5768 5768 5769 5769 5770 5771 5771 5772 5773 5775 5776 5778 5779 5781 5782 5784 5786 5788 5791 5794 5797 5799 5802 5804 5807 5808 5810 5812 5814 5816 5817 5819 5821 5823 5824
5770 5768 5767 5765 5764 5762 5762 5761 5761 5762 5762 5763 5764 5764 5765 5766 5768 5769 5770 5772 5774 5775 5777 5778 5780 5782 5783 5786 5788 5791 5794 5797 5799 5801 5803 5805 5807 5809 5810 5812 5814 5816 5817
5765 5763 5761 5760 5758 5756 5755 5755 5754 5755 5755 5756 5757 5758 5759 5760 5761 5762 5764 5766 5768 5769 5771 5772 5774 5775 5776 5778 5780 5783 5785 5788 5790 5792 5794 5797 5798 5800 5802 5804 5806 5808 5809
5758 5757 5755 5753 5752 5751 5749 5748 5748 5748 5748 5748 5749 5750 5752 5753 5754 5756 5757 5759 5760 5762 5764 5765 5766 5768 5769 5770 5772 5774 5776 5779 5781 5782 5784 5787 5789 5791 5793 5796 5798 5799 5800
5752 5750 5748 5747 5745 5744 5743 5742 5741 5741 5741 5741 5741 5743 5744 5746 5747 5749 5750 5752 5753 5755 5756 5758 5759 5760 5761 5763 5764 5766 5768 5770 5772 5773 5775 5778 5779 5780 5783 5786 5788 5789 5790
5746 5744 5742 5740 5738 5737 5736 5735 5734 5734 5734 5734 5735 5736 5737 5739 5741 5742 5744 5745 5747 5748 5750 5751 5752 5754 5755 5756 5757 5758 5759 5761 5762 5764 5765 5767 5769 5770 5773 5775 5777 5778 5779